Home   Weather   Lexington-Fayette   Past weeks
Flag for USA

Past Weather in Lexington-Fayette, Kentucky, USA — Yesterday and Last 2 Weeks

Now
67 °F

Partly sunny.


Feels Like: 67 °F
Forecast: 67 / 51 °F
Wind: 3 mph from Southwest

Location: Blue Grass Airport

Current Time: Oct 20, 2019 at 12:46:31 pm

Latest Report: Oct 20, 2019 at 12:15 pm


Visibility: 10 mi

Pressure: 29.93 "Hg

Humidity: 71%

Dew Point: 57 °F

Location of Lexington-FayetteLocation

Past Weather in Lexington-Fayette — Graph

°F

Lexington-Fayette Temperature Yesterday

Maximum temperature yesterday: 73 °F (at 2:54 pm)
Minimum temperature yesterday: 45 °F (at 7:54 am)
Average temperature yesterday: 59 °F

High & Low Weather Summary for the Past Weeks

 TemperatureHumidityPressure
High86 °F (Oct 5, 4:54 pm)93% (Oct 8, 5:11 am)30.23 "Hg (Oct 8, 5:11 am)
Low37 °F (Oct 13, 4:54 am)23% (Oct 13, 4:54 pm)29.69 "Hg (Oct 16, 4:54 am)
Average59 °F66%30.04 "Hg
* Reported Oct 5 11:54 am — Oct 20 11:35 am, Lexington-Fayette. Weather by CustomWeather, © 2019

Note: Actual official high and low records may vary slightly from our data, if they occured in-between our weather recording intervals... More about our weather records

Advertising

Lexington-Fayette Weather History for the Previous 24 Hours

Scroll right to see more
 ConditionsComfort  
Time TempWeatherWind HumidityBarometerVisibility
11:35 am
Sun, Oct 20
65 °FPartly sunny.5 mph73%29.93 "Hg10 mi
11:14 am66 °FBroken clouds.5 mph73%29.93 "Hg10 mi
10:59 am64 °FMostly cloudy.3 mph78%29.93 "Hg10 mi
10:35 am61 °FMostly cloudy.5 mph83%29.93 "Hg9 mi
9:54 am61 °FMostly cloudy.5 mph83%29.90 "Hg8 mi
9:13 am59 °FFog.3 mph90%29.90 "Hg3 mi
9:05 am59 °FFog.No wind87%29.89 "Hg2 mi
8:22 am58 °FFog.5 mph90%29.88 "Hg2 mi
7:54 am58 °FFog.3 mph87%29.86 "Hg6 mi
7:09 am58 °FLight rain. Fog.No wind87%29.86 "Hg5 mi
6:54 am58 °FMostly cloudy.No wind87%29.85 "Hg7 mi
6:29 am58 °FMostly cloudy.3 mph87%29.85 "Hg8 mi
6:12 am58 °FLight rain. Fog.No wind87%29.84 "Hg5 mi
5:54 am58 °FFog.No wind87%29.82 "Hg6 mi
5:23 am58 °FMostly cloudy.No wind87%29.83 "Hg9 mi
4:54 am58 °FMostly cloudy.3 mph87%29.81 "Hg10 mi
3:54 am58 °FLight rain. Overcast.3 mph84%29.80 "Hg3 mi
2:54 am60 °FOvercast.No wind69%29.81 "Hg10 mi
1:54 am61 °FOvercast.No wind67%29.80 "Hg10 mi
1:41 am61 °FMostly cloudy.3 mph65%29.82 "Hg10 mi
12:54 am60 °FOvercast.3 mph67%29.82 "Hg10 mi
11:54 pm
Sat, Oct 19
61 °FPassing clouds.6 mph62%29.82 "Hg10 mi
10:54 pm62 °FPassing clouds.6 mph58%29.83 "Hg10 mi
9:54 pm63 °FClear.9 mph52%29.82 "Hg10 mi
8:54 pm64 °FClear.7 mph50%29.82 "Hg10 mi
7:54 pm66 °FPassing clouds.6 mph45%29.83 "Hg10 mi
6:54 pm68 °FSunny.6 mph42%29.81 "Hg10 mi
5:54 pm71 °FSunny.8 mph39%29.81 "Hg10 mi
4:54 pm72 °FSunny.5 mph37%29.82 "Hg10 mi
3:54 pm73 °FSunny.9 mph36%29.85 "Hg10 mi
2:54 pm73 °FSunny.9 mph36%29.86 "Hg10 mi
1:54 pm71 °FSunny.8 mph36%29.89 "Hg10 mi
12:54 pm68 °FSunny.10 mph40%29.93 "Hg10 mi
Weather by CustomWeather, © 2019

See weather overview